Location: Berg
(48.5667°N, 13.9833°E)
Time: 02:57:38
(UTC+00:00)

Cosmos 1356 Rocket - Pass Details

Date: 09 April 2020
Orbit: 543 x 599 km, 81.2° (Epoch: 04 June)

Event Time Altitude Azimuth Distance (km) Brightness Sun altitude
Exits shadow 20:13:58 60° 76° (ENE) 681 3.5 -22.1°
Drops below altitude 10° 20:17:53 10° 18° (NNE) 1,921 6.4 -22.6°
Sets 20:20:05 0° 15° (NNE) 2,817 7.3 -22.8°
